Location: Buchloe
(48.0161°N, 10.7316°E)
Time: 03:12:40
(UTC+02:00)

ISS - Pass Details

Date: 08 July 2025
Orbit: 413 x 417 km, 51.6° (Epoch: 12 July)

Event Time Altitude Azimuth Distance (km) Brightness Sun altitude
Rises 01:12:25 0° 272° (W) 2,351 0.1 -19.5°
Reaches altitude 10° 01:14:34 10° 279° (W) 1,490 -0.8 -19.5°
Maximum altitude 01:17:47 45° 353° (N) 582 -2.6 -19.5°
Drops below altitude 10° 01:21:02 10° 68° (ENE) 1,494 -0.7 -19.5°
Sets 01:23:11 0° 75° (ENE) 2,358 0.2 -19.5°
